Location: Little Baddow
(51.7333°N, 0.5667°E)
Time: 23:14:28
(UTC+00:00)

Okean 1-7 - Pass Details

Date: 08 November 2025
Orbit: 567 x 589 km, 82.5° (Epoch: 04 December)

Event Time Altitude Azimuth Distance (km) Brightness Sun altitude
Exits shadow 05:48:14 18° 289° (WNW) 1,483 4.4 -12.0°
Maximum altitude 05:48:39 18° 296° (WNW) 1,475 4.4 -11.9°
Drops below altitude 10° 05:51:34 10° 340° (NNW) 1,927 5.3 -11.5°
Sets 05:54:25 0° 360° (N) 2,837 6.3 -11.0°
